DK4MDA-13 Weather Reports


time (UTC)temp
F
wind
direction
speed
knots
gust
knots
rain 1hr
in
rain 24hr
in
rain mn
in
humidity
%
barometer
mb
20260507113205 47 75 1.7 4.3 0.01 0.19 0.17 91 1015.4
20260507112705 47 79 2.6 8.7 0.01 0.19 0.17 90 1015.3
20260507112205 47 79 1.7 6.1 0.01 0.23 0.17 90 1015.2
20260507111705 47 48 0.9 4.3 0.02 0.23 0.17 91 1015.2
20260507111205 47 90 1.7 3.5 0.02 0.23 0.17 91 1015.2
20260507110705 47 78 1.7 3.5 0.02 0.23 0.17 91 1015.1
20260507110205 47 31 0.9 6.1 0.02 0.23 0.17 92 1015.3
20260507105705 47 75 0.9 2.6 0.03 0.23 0.17 92 1015.2
20260507105205 46 89 0.9 2.6 0.03 0.23 0.17 92 1015.0
20260507104705 46 87 0.9 3.5 0.03 0.23 0.17 92 1015.1
20260507104205 46 80 1.7 4.3 0.04 0.23 0.17 92 1015.0
20260507103705 46 72 1.7 4.3 0.03 0.22 0.16 92 1015.1
20260507103205 46 110 2.6 4.3 0.03 0.22 0.16 92 1014.9
20260507102705 46 64 2.6 6.1 0.04 0.22 0.16 92 1015.0
20260507102205 46 45 2.6 4.3 0.04 0.23 0.16 92 1015.0
20260507101705 45 50 3.5 7.8 0.04 0.22 0.15 92 1014.9
20260507101205 45 43 4.3 6.1 0.04 0.22 0.15 91 1014.8
20260507100705 45 31 4.3 9.6 0.04 0.22 0.15 91 1014.8
20260507100205 45 21 5.2 8.7 0.05 0.22 0.15 91 1014.6
20260507095705 45 26 5.2 9.6 0.04 0.21 0.14 91 1014.7
20260507095205 45 21 4.3 7.8 0.04 0.21 0.14 91 1014.6
20260507094705 45 26 4.3 9.6 0.04 0.21 0.14 91 1014.5
20260507094205 45 55 3.5 9.6 0.03 0.20 0.13 91 1014.4
20260507093705 45 21 1.7 9.6 0.03 0.20 0.13 92 1014.3
20260507093205 45 31 2.6 4.3 0.04 0.20 0.13 92 1014.3
20260507092705 45 45 3.5 7.0 0.03 0.19 0.12 91 1014.1
20260507092205 45 45 2.6 7.0 0.03 0.19 0.12 91 1014.0
20260507091705 45 58 2.6 5.2 0.02 0.18 0.11 91 1014.0
20260507091205 45 31 2.6 7.0 0.02 0.18 0.11 91 1014.0
20260507090705 45 60 2.6 4.3 0.02 0.18 0.11 91 1013.8
20260507090205 45 767 1.7 5.2 0.01 0.17 0.10 92 1013.8
20260507085705 45 37 1.7 4.3 0.01 0.17 0.10 91 1013.7
20260507085205 45 50 3.5 4.3 0.02 0.17 0.10 91 1013.7
20260507084705 45 81 2.6 9.6 0.02 0.17 0.10 91 1013.7
20260507084205 45 35 2.6 6.1 0.02 0.17 0.10 91 1013.6
20260507083705 45 26 2.6 6.1 0.02 0.17 0.10 91 1013.6
20260507083205 45 38 3.5 4.3 0.01 0.16 0.09 91 1013.5
20260507082705 45 31 4.3 6.1 0.01 0.16 0.09 91 1013.4
20260507082205 45 37 3.5 8.7 0.01 0.16 0.09 90 1013.3
20260507081705 45 31 3.5 7.0 0.01 0.16 0.09 91 1013.2
20260507081205 45 42 3.5 6.1 0.01 0.16 0.09 91 1013.3
20260507080705 45 21 3.5 7.8 0.01 0.16 0.09 91 1013.2
20260507080205 45 38 2.6 6.1 0.01 0.16 0.09 91 1013.1
20260507075705 45 26 2.6 5.2 0.01 0.16 0.09 91 1013.1
20260507075205 45 31 4.3 7.0 0.00 0.15 0.08 91 1013.1
20260507074705 45 31 3.5 8.7 0.00 0.15 0.08 90 1013.0
20260507074205 45 26 2.6 7.0 0.00 0.15 0.08 90 1013.1
20260507073705 45 62 2.6 8.7 0.00 0.15 0.08 90 1012.9
20260507073205 45 35 2.6 6.1 0.00 0.15 0.08 90 1012.8
20260507072705 45 96 3.5 7.0 0.00 0.15 0.08 90 1012.9
20260507072205 45 31 3.5 7.8 0.00 0.18 0.08 91 1012.8
20260507071705 45 35 3.5 7.0 0.00 0.18 0.08 91 1012.7
20260507071205 44 97 4.3 7.0 0.00 0.18 0.08 90 1012.7
20260507070705 45 31 4.3 9.6 0.00 0.18 0.08 90 1012.7
20260507070205 44 16 5.2 9.6 0.00 0.18 0.08 90 1012.5
20260507065705 44 26 5.2 11.3 0.00 0.18 0.08 90 1012.6
20260507065205 44 21 4.3 8.7 0.00 0.18 0.08 90 1012.5
20260507064705 44 53 4.3 8.7 0.00 0.18 0.08 90 1012.5
20260507064205 44 45 4.3 7.8 0.00 0.18 0.08 90 1012.4
20260507063705 44 21 4.3 8.7 0.00 0.18 0.08 90 1012.5
20260507063205 44 43 4.3 8.7 0.00 0.18 0.08 89 1012.4
20260507062705 44 42 5.2 7.0 0.00 0.18 0.08 90 1012.2
20260507062205 44 38 5.2 9.6 0.00 0.30 0.08 89 1012.3
20260507061705 44 26 4.3 8.7 0.00 0.30 0.08 89 1012.1
20260507061205 44 21 5.2 8.7 0.00 0.30 0.08 89 1012.2
20260507060705 44 35 4.3 8.7 0.00 0.30 0.08 89 1012.0
20260507060205 44 26 3.5 7.8 0.00 0.30 0.08 90 1012.0
20260507055705 44 31 4.3 7.0 0.00 0.30 0.08 89 1012.0
20260507055205 44 35 4.3 7.8 0.00 0.30 0.08 89 1011.9
20260507054705 44 11 4.3 7.8 0.00 0.30 0.08 89 1011.8
20260507054205 44 43 4.3 7.8 0.00 0.30 0.08 89 1011.8
20260507053705 44 31 4.3 8.7 0.00 0.30 0.08 89 1011.7
20260507053205 44 40 5.2 8.7 0.00 0.30 0.08 89 1011.7
20260507052705 44 16 4.3 8.7 0.00 0.30 0.08 89 1011.7
20260507052205 44 31 5.2 7.8 0.00 0.41 0.08 90 1011.6
20260507051705 44 31 6.1 8.7 0.00 0.41 0.08 89 1011.5
20260507051205 44 26 6.1 10.4 0.00 0.41 0.08 90 1011.5
20260507050705 44 21 5.2 10.4 0.00 0.41 0.08 90 1011.3
20260507050205 44 31 5.2 9.6 0.00 0.41 0.08 90 1011.2
20260507045705 44 41 5.2 7.8 0.00 0.41 0.08 91 1011.3
20260507045205 44 21 4.3 12.2 0.01 0.41 0.08 91 1011.2
20260507044706 44 31 5.2 8.7 0.01 0.41 0.08 91 1011.0
20260507044205 44 31 6.1 12.2 0.01 0.41 0.08 91 1011.0
20260507043706 44 26 6.1 10.4 0.01 0.41 0.08 91 1011.0
20260507043205 44 26 6.1 11.3 0.01 0.41 0.08 91 1010.9
20260507042706 44 31 6.1 10.4 0.01 0.41 0.08 92 1010.8
20260507042206 44 48 6.1 11.3 0.01 0.61 0.08 92 1010.8
20260507041706 44 21 4.3 11.3 0.01 0.61 0.08 92 1010.6
20260507041206 44 59 3.5 9.6 0.01 0.61 0.08 93 1010.6
20260507040706 44 26 3.5 7.0 0.01 0.61 0.08 93 1010.5
20260507040206 44 56 5.2 8.7 0.01 0.61 0.08 93 1010.6
20260507035706 44 78 4.3 9.6 0.01 0.61 0.08 93 1010.5
20260507035206 44 43 3.5 9.6 0.00 0.60 0.07 93 1010.5
20260507034706 44 46 4.3 9.6 0.00 0.60 0.07 93 1010.5
20260507034206 44 85 4.3 9.6 0.00 0.60 0.07 93 1010.4
20260507033706 44 70 4.3 8.7 0.00 0.60 0.07 93 1010.5
20260507033206 44 58 3.5 7.8 0.00 0.60 0.07 93 1010.5
20260507032706 45 41 3.5 10.4 0.00 0.60 0.07 93 1010.5
20260507032206 45 52 4.3 8.7 0.00 0.74 0.07 93 1010.4
20260507031706 45 86 4.3 9.6 0.00 0.74 0.07 92 1010.5
20260507031206 45 43 3.5 7.0 0.00 0.74 0.07 93 1010.4
20260507030706 45 45 3.5 9.6 0.00 0.74 0.07 93 1010.4
20260507030206 45 21 4.3 8.7 0.00 0.74 0.07 93 1010.3
20260507025706 45 31 3.5 6.1 0.00 0.74 0.07 93 1010.2
20260507025206 45 35 2.6 8.7 0.00 0.74 0.07 92 1010.1
20260507024706 46 39 3.5 7.0 0.00 0.74 0.07 93 1010.1
20260507024206 46 75 4.3 7.8 0.00 0.74 0.07 92 1010.1
20260507023706 46 767 5.2 8.7 0.01 0.74 0.07 92 1010.1
20260507023206 46 26 5.2 9.6 0.01 0.74 0.07 92 1010.0
20260507022706 46 31 4.3 8.7 0.01 0.74 0.07 92 1010.2
20260507022206 47 31 3.5 7.0 0.01 0.91 0.07 93 1010.1
20260507021706 47 26 3.5 7.0 0.01 0.91 0.07 92 1010.0
20260507021206 47 66 5.2 9.6 0.01 0.91 0.07 93 1010.0
20260507020706 47 26 5.2 8.7 0.01 0.91 0.07 93 1009.9
20260507020206 48 62 3.5 9.6 0.01 0.91 0.07 93 1009.7
20260507015706 48 41 3.5 7.0 0.02 0.91 0.07 93 1009.9
20260507015206 48 43 3.5 7.0 0.02 0.91 0.07 93 1009.8
20260507014706 48 26 2.6 7.8 0.03 0.91 0.07 93 1009.9
20260507014206 48 31 2.6 3.5 0.04 0.91 0.07 93 1009.8
20260507013706 48 31 2.6 5.2 0.05 0.90 0.06 93 1009.7
20260507013206 48 70 2.6 3.5 0.06 0.90 0.06 93 1009.6
20260507012706 48 42 1.7 4.3 0.06 0.90 0.06 93 1009.6
20260507012206 48 70 1.7 7.0 0.06 1.17 0.06 93 1009.5
20260507011706 49 767 1.7 3.5 0.06 1.17 0.06 93 1009.4
20260507011206 49 35 1.7 5.2 0.06 1.17 0.06 92 1009.3
20260507010706 49 37 1.7 3.5 0.06 1.17 0.06 92 1009.5
20260507010206 49 31 2.6 3.5 0.06 1.17 0.06 92 1009.4
20260507005706 49 37 2.6 4.3 0.05 1.16 0.05 92 1009.3
20260507005206 49 767 2.6 4.3 0.05 1.16 0.05 91 1009.3
20260507004706 49 40 2.6 5.2 0.04 1.15 0.04 91 1009.3
20260507004206 49 66 2.6 5.2 0.03 1.14 0.03 91 1009.2
20260507003706 49 38 2.6 6.1 0.01 1.12 0.01 91 1009.2
20260507003206 49 54 2.6 7.0 0.00 1.11 0.00 90 1009.3
20260507002706 49 37 1.7 6.1 0.00 1.11 0.00 90 1009.3
20260507002206 49 26 1.7 3.5 0.00 1.23 0.00 90 1009.4
20260507001706 49 79 1.7 5.2 0.00 1.23 0.00 90 1009.2
20260507001206 49 48 1.7 4.3 0.00 1.23 0.00 90 1009.3
20260507000706 49 77 1.7 5.2 0.00 1.23 0.00 90 1009.2
20260507000206 49 41 1.7 6.1 0.00 1.23 0.00 90 1009.1
20260506235706 50 56 1.7 4.3 0.00 1.23 0.00 90 1009.0
20260506235206 50 21 1.7 3.5 0.00 1.23 0.00 90 1009.0
20260506234706 50 107 1.7 3.5 0.00 1.23 0.00 90 1008.9
20260506234206 50 87 1.7 7.0 0.00 1.23 0.00 90 1008.9
20260506233706 50 50 1.7 4.3 0.00 1.23 0.00 90 1008.8
20260506233206 50 52 1.7 4.3 0.00 1.23 0.00 90 1008.9
20260506232707 50 118 1.7 6.1 0.00 1.23 0.00 90 1008.9
20260506232206 50 39 2.6 4.3 0.00 1.31 0.00 90 1008.9
20260506231706 50 31 2.6 7.0 0.00 1.31 0.00 90 1008.8
20260506231206 50 26 2.6 4.3 0.00 1.31 0.00 90 1008.8
20260506230706 50 49 1.7 4.3 0.00 1.31 0.00 90 1008.8
20260506230206 50 122 2.6 4.3 0.00 1.31 0.00 90 1008.9
20260506225706 50 51 2.6 5.2 0.00 1.31 0.00 90 1008.9
20260506225206 50 62 2.6 6.1 0.00 1.31 0.00 90 1008.7
20260506224706 50 35 2.6 7.0 0.00 1.31 0.00 90 1008.7
20260506224206 50 58 2.6 4.3 0.00 1.31 0.00 91 1008.8
20260506223706 50 31 1.7 6.1 0.00 1.31 0.00 91 1008.5
20260506223206 50 70 2.6 6.1 0.00 1.31 0.00 91 1008.6
20260506222706 50 31 3.5 11.3 0.00 1.31 0.00 91 1008.4
20260506222206 50 41 2.6 5.2 0.00 1.39 0.00 91 1008.6
20260506221706 50 68 1.7 6.1 0.00 1.39 0.00 90 1008.5
20260506221206 50 87 1.7 5.2 0.00 1.39 0.00 90 1008.5
20260506220706 50 60 1.7 4.3 0.00 1.39 0.00 91 1008.5
20260506220206 50 91 2.6 5.2 0.00 1.39 0.00 91 1008.4
20260506215706 50 38 3.5 9.6 0.00 1.39 1.41 91 1008.4
20260506215206 50 44 3.5 7.8 0.00 1.39 1.41 91 1008.4
20260506214706 50 44 3.5 7.0 0.00 1.39 1.41 91 1008.5
20260506214206 51 36 3.5 7.8 0.00 1.39 1.41 91 1008.4
20260506213706 51 70 2.6 7.0 0.00 1.39 1.41 91 1008.4
20260506213206 51 78 1.7 7.0 0.00 1.39 1.41 91 1008.3
20260506212706 51 46 1.7 3.5 0.00 1.39 1.41 91 1008.4
20260506212206 51 85 1.7 6.1 0.00 1.41 1.41 91 1008.4
20260506211706 51 64 1.7 3.5 0.00 1.41 1.41 91 1008.4
20260506211206 51 107 1.7 4.3 0.00 1.41 1.41 91 1008.4
20260506210706 51 92 1.7 4.3 0.00 1.41 1.41 91 1008.3
20260506210206 51 76 2.6 7.0 0.00 1.41 1.41 90 1008.3
20260506205706 51 100 2.6 8.7 0.00 1.41 1.41 90 1008.2
20260506205206 51 50 2.6 6.1 0.00 1.41 1.41 91 1008.1
20260506204706 51 59 1.7 6.1 0.00 1.41 1.41 91 1008.2
20260506204206 52 767 1.7 5.2 0.00 1.41 1.41 91 1008.1
20260506203706 52 75 1.7 3.5 0.00 1.41 1.41 91 1008.2
20260506203206 52 81 1.7 7.0 0.00 1.41 1.41 90 1007.9
20260506202706 52 82 1.7 4.3 0.00 1.41 1.41 90 1007.9
20260506202206 52 60 1.7 4.3 0.00 1.41 1.41 90 1007.9
20260506201706 52 95 2.6 3.5 0.00 1.41 1.41 90 1007.8
20260506201206 52 31 2.6 7.0 0.00 1.41 1.41 90 1007.8
20260506200706 52 72 2.6 4.3 0.00 1.41 1.41 90 1007.7
20260506200206 52 65 2.6 8.7 0.00 1.41 1.41 90 1007.7
20260506195706 52 85 1.7 4.3 0.00 1.41 1.41 91 1007.8
20260506195206 53 81 1.7 4.3 0.00 1.41 1.41 91 1007.8
20260506194706 53 65 2.6 5.2 0.00 1.41 1.41 91 1007.7
20260506194206 53 39 3.5 7.8 0.00 1.41 1.41 91 1007.6
20260506193706 53 79 4.3 9.6 0.00 1.41 1.41 91 1007.4
20260506193206 53 31 3.5 7.0 0.00 1.41 1.41 91 1007.4
20260506192706 53 26 3.5 7.8 0.00 1.41 1.41 91 1007.5
20260506192206 53 60 3.5 7.8 0.00 1.41 1.41 91 1007.6
20260506191706 53 31 3.5 5.2 0.00 1.41 1.41 91 1007.7
20260506191206 54 58 3.5 7.0 0.00 1.41 1.41 91 1007.6
20260506190706 54 26 2.6 6.1 0.00 1.41 1.41 91 1007.5
20260506190206 54 26 2.6 7.0 0.00 1.41 1.41 91 1007.4
20260506185706 54 58 1.7 4.3 0.00 1.41 1.41 90 1007.4
20260506185206 54 62 1.7 3.5 0.00 1.41 1.41 90 1007.4
20260506184706 54 81 1.7 3.5 0.00 1.41 1.41 90 1007.1
20260506184206 54 42 0.9 3.5 0.00 1.41 1.41 90 1007.1
20260506183706 54 88 0.9 3.5 0.00 1.41 1.41 90 1007.1
20260506183206 54 100 1.7 3.5 0.00 1.41 1.41 89 1007.0
20260506182706 54 53 1.7 3.5 0.00 1.41 1.41 89 1006.9
20260506182206 54 78 2.6 7.0 0.00 1.41 1.41 89 1006.7
20260506181706 54 93 2.6 6.1 0.00 1.41 1.41 89 1006.7
20260506181206 54 41 2.6 4.3 0.00 1.41 1.41 90 1006.8
20260506180706 54 46 3.5 7.8 0.00 1.41 1.41 90 1006.7
20260506180206 54 66 3.5 7.0 0.00 1.41 1.41 90 1006.7
20260506175706 54 35 2.6 7.0 0.00 1.41 1.41 90 1006.8
20260506175206 54 48 1.7 4.3 0.00 1.41 1.41 90 1006.8
20260506174706 55 45 1.7 4.3 0.00 1.41 1.41 90 1006.8
20260506174206 55 62 1.7 3.5 0.00 1.41 1.41 90 1006.9
20260506173840 55 102 1.7 4.3 0.00 1.41 1.41 89 1007.0
20260506173800 55 102 1.7 4.3 0.00 1.41 1.41 89 1007.0
20260506173706 55 102 1.7 4.3 0.00 1.41 1.41 89 1007.0
20260506173206 55 72 1.7 6.1 0.00 1.41 1.41 89 1006.9
20260506172706 55 44 1.7 3.5 0.00 1.41 1.41 90 1006.9
20260506172206 55 84 1.7 4.3 0.00 1.41 1.41 89 1006.9
20260506171706 55 31 1.7 3.5 0.00 1.41 1.41 90 1006.6
20260506171206 55 78 1.7 5.2 0.00 1.41 1.41 89 1006.7
20260506170706 55 71 2.6 4.3 0.00 1.41 1.41 90 1006.7
20260506170206 55 42 1.7 5.2 0.00 1.41 1.41 90 1006.7
20260506165706 55 45 1.7 4.3 0.00 1.41 1.41 90 1006.7
20260506165206 55 63 1.7 4.3 0.00 1.41 1.41 89 1006.7
20260506164706 55 81 1.7 4.3 0.00 1.41 1.41 89 1006.7
20260506164206 55 40 1.7 6.1 0.00 1.41 1.41 89 1006.7
20260506163706 55 45 2.6 5.2 0.00 1.41 1.41 89 1006.7
20260506163206 55 86 2.6 4.3 0.00 1.41 1.41 90 1006.6
20260506162706 55 68 1.7 6.1 0.00 1.41 1.41 90 1006.6
20260506162206 55 90 1.7 3.5 0.00 1.41 1.41 90 1006.6
20260506161706 55 39 2.6 2.6 0.00 1.41 1.41 91 1006.5
20260506161206 55 48 2.6 7.8 0.00 1.41 1.41 90 1006.5
20260506160706 55 61 2.6 7.0 0.00 1.41 1.41 91 1006.3
20260506160206 55 41 2.6 4.3 0.01 1.41 1.41 91 1006.2
20260506155706 55 96 2.6 7.0 0.01 1.41 1.41 91 1006.2
20260506155206 55 68 1.7 6.1 0.02 1.41 1.41 92 1006.3
20260506154706 55 73 1.7 4.3 0.02 1.41 1.41 92 1006.4
20260506154206 55 56 1.7 4.3 0.02 1.41 1.41 92 1006.4
20260506153706 55 73 1.7 4.3 0.02 1.41 1.41 92 1006.5
20260506153206 55 81 1.7 4.3 0.02 1.41 1.41 93 1006.6
20260506152706 55 65 1.7 4.3 0.02 1.41 1.41 93 1006.5
20260506152206 55 61 1.7 2.6 0.02 1.41 1.41 93 1006.6
20260506151706 55 94 2.6 6.1 0.02 1.41 1.41 92 1006.5
20260506151206 54 93 2.6 7.8 0.02 1.41 1.41 92 1006.5
20260506150706 55 77 1.7 7.0 0.02 1.41 1.41 93 1006.4
20260506150206 55 86 1.7 3.5 0.01 1.40 1.40 93 1006.4
20260506145707 55 56 1.7 2.6 0.01 1.40 1.40 93 1006.5
20260506145206 54 74 1.7 4.3 0.00 1.39 1.39 92 1006.6
20260506144706 54 31 1.7 4.3 0.00 1.39 1.39 92 1006.5
20260506144207 54 55 1.7 3.5 0.00 1.39 1.39 92 1006.6
20260506143707 54 48 1.7 4.3 0.00 1.39 1.39 92 1006.7
20260506143207 55 88 2.6 4.3 0.00 1.39 1.39 91 1006.6
20260506142707 55 52 1.7 4.3 0.00 1.39 1.39 91 1006.6
20260506142207 55 83 1.7 5.2 0.00 1.39 1.39 91 1006.6
20260506141707 55 39 1.7 3.5 0.00 1.39 1.39 91 1006.7
20260506141207 55 43 1.7 6.1 0.00 1.39 1.39 91 1006.6
20260506140707 55 36 1.7 4.3 0.00 1.39 1.39 90 1006.6
20260506140207 55 72 1.7 3.5 0.00 1.39 1.39 90 1006.6
20260506135707 55 101 1.7 4.3 0.00 1.39 1.39 89 1006.6
20260506135207 56 31 1.7 4.3 0.00 1.39 1.39 89 1006.6
20260506134707 56 72 0.9 6.1 0.00 1.39 1.39 89 1006.6
20260506134207 56 36 0.9 3.5 0.00 1.39 1.39 90 1006.7
20260506133707 56 26 1.7 3.5 0.00 1.39 1.39 90 1006.6
20260506133207 56 47 1.7 3.5 0.00 1.39 1.39 90 1006.6
20260506132707 56 77 1.7 3.5 0.00 1.39 1.39 90 1006.6
20260506132207 56 85 1.7 3.5 0.00 1.39 1.39 91 1006.6
20260506131707 56 72 1.7 4.3 0.00 1.39 1.39 91 1006.5
20260506131207 55 93 1.7 4.3 0.00 1.39 1.39 91 1006.5
20260506130707 55 60 1.7 4.3 0.00 1.39 1.39 92 1006.5
20260506130207 55 61 1.7 5.2 0.00 1.39 1.39 92 1006.5
20260506125707 55 68 1.7 3.5 0.00 1.39 1.39 93 1006.6
20260506125207 55 47 1.7 3.5 0.01 1.39 1.39 94 1006.5
20260506124707 54 95 2.6 4.3 0.01 1.39 1.39 93 1006.6
20260506124207 54 69 1.7 5.2 0.01 1.39 1.39 94 1006.6
20260506123707 54 35 1.7 3.5 0.02 1.39 1.39 94 1006.6
20260506123207 54 97 1.7 3.5 0.03 1.39 1.39 94 1006.6
20260506122707 54 66 0.9 2.6 0.04 1.39 1.39 94 1006.6
20260506122207 54 95 1.7 2.6 0.04 1.39 1.39 95 1006.6
20260506121707 54 86 1.7 4.3 0.04 1.39 1.39 95 1006.6
20260506121207 54 38 1.7 3.5 0.04 1.39 1.39 95 1006.6
20260506120707 54 91 1.7 2.6 0.04 1.39 1.39 95 1006.5
20260506120207 54 61 1.7 2.6 0.04 1.39 1.39 95 1006.5
20260506115707 53 44 2.6 5.2 0.04 1.39 1.39 95 1006.5
20260506115207 53 37 2.6 5.2 0.03 1.38 1.38 94 1006.5
20260506114707 53 26 2.6 4.3 0.03 1.38 1.38 94 1006.5
20260506114207 53 26 2.6 5.2 0.03 1.38 1.38 94 1006.7
20260506113707 53 26 1.7 4.3 0.03 1.37 1.37 94 1006.7